Regional Weather Roundup
Issued by NWS Wakefield, VA

Home | Current Version | Previous Version | Graphics & Text | Print | Product List | Glossary On
Versions: 1 2 3 4 5 6 7 8 9 10 11 12 13 14 15 16 17 18 19 20 21 22 23 24 25 26 27 28 29 30 31 32 33 34 35 36 37 38 39 40 41 42 43 44 45 46 47 48 49 50
617
ASUS41 KAKQ 240215
RWRAKQ

REGIONAL WEATHER ROUNDUP
NATIONAL WEATHER SERVICE WAKEFIELD VA
1000 PM EDT FRI SEP 23 2016

Note: "fair" indicates few or no clouds below 12,000 feet with no
significant weather and/or obstructions to visibility. * = Denotes
station may not report precipitation (e.g., rain,snow,etc.),
thunder or fog.

VAZ042-051-052>054-056-240300-
NORTHERN VIRGINIA

CITY           SKY/WX    TMP DP  RH WIND       PRES   REMARKS
WASH NATIONAL  CLEAR     77  70  79 S7        30.00R
DULLES         PTCLDY    74  64  71 CALM      30.00R
FORT BELVOIR   CLEAR     69  67  94 SE1       30.00R
QUANTICO         N/A     72  68  87 NW5       30.00R
FREDERICKSBRG* CLEAR     72  69  91 CALM      29.99S
STAFFORD*      CLEAR     66  66 100 CALM      30.04S
WARRENTON      CLEAR     67  62  82 CALM      30.00R
CULPEPER*      CLEAR     68  67  97 CALM      30.02R
MANASSAS*      CLEAR     70  70 100 CALM      30.00R
LEESBURG*      CLEAR     75  64  69 SW5       30.01R
WINCHESTER     CLEAR     70  61  73 CALM      30.02R
FRONT ROYAL*   FAIR      70  64  83 CALM      30.02R
LURAY*         FAIR      68  68 100 CALM      30.04R
$$

VAZ048-049-060>072-079>083-240300-
CENTRAL AND SOUTH CENTRAL VIRGINIA

CITY           SKY/WX    TMP DP  RH WIND       PRES   REMARKS
RICHMOND       CLEAR     68  64  87 CALM      30.00S
CHESTERFIELD*  FAIR      68  54  60 CALM      30.02S
PETERSBURG*    CLEAR    N/A N/A N/A CALM      30.02S FOG
HANOVER        CLEAR     67  65  93 CALM      30.02S
TAPPAHANNOCK*  CLEAR     67  67 100 CALM      30.01S
QUINTON*       FAIR      67  66  99 CALM      30.00S
CHARLOTTSVILLE CLEAR     71  64  78 CALM      30.03R
GORDONSVILLE*  FAIR      68  66  94 CALM      30.02R
ORANGE*          N/A     70  70 100 CALM      30.04R
LOUISA*        CLEAR     70  66  88 CALM      30.01S
BUMPASS*       FAIR      67  67 100 CALM      30.02R
FARMVILLE*     CLEAR     67  65  93 CALM      30.02R
CREWE*         FAIR      65  65 100 CALM      30.02S
FORT PICKETT*  FAIR      66  65  97 W6        30.02S
CHASE CITY*    FAIR      68  66  94 CALM      30.03S
CLARKSVILLE*   FAIR      70  70 100 CALM      30.02S
SOUTH HILL*    CLEAR     68  68 100 CALM      30.08S
LAWRENCEVILLE* FAIR      69  69 100 CALM      30.02S
EMPORIA*         N/A     64  64 100 CALM      30.03S
$$

VAZ088>098-240300-
SOUTHEAST VIRGINIA

CITY           SKY/WX    TMP DP  RH WIND       PRES   REMARKS
NORFOLK        CLEAR     70  66  87 CALM      30.00S
VIRGINIA BEACH CLEAR     67  65  93 CALM      30.00R
NORFOLK NAVAL  PTCLDY    67  64  90 CALM      30.02
WEST POINT*    CLEAR     69  68  96 CALM      30.02S
SALUDA*        FAIR      66  65  97 CALM      30.00S
NEWPORT NEWS   CLEAR     68  66  93 CALM      30.01R
LANGLEY AFB    CLEAR     67  65  94 W1        30.00S
FORT EUSTIS    CLEAR     70  66  89 CALM      29.99R
WILLIAMSBURG*  CLEAR     72  70  94 CALM      30.02S
HR EXEC AP*    FAIR      64  63  94 CALM      30.03S
FRANKLIN*      CLEAR     69  68  98 CALM      30.02R
US460-WAKEFLD  CLEAR     68  66  93 CALM      30.02R FOG
$$

VAZ020-022-025-037-045-240300-
WEST CENTRAL AND SOUTHWEST VIRGINIA

CITY           SKY/WX    TMP DP  RH WIND       PRES   REMARKS
STAUNTON*      CLEAR     66  63  89 CALM      30.08R
WAYNESBORO*    FAIR      70  63  79 CALM      30.07R
HOT SPRINGS VA CLEAR     69  56  62 N7        30.19S
LYNCHBURG      CLEAR     64  62  93 CALM      30.06R
DANVILLE       CLEAR     67  65  93 CALM      30.03R
SOUTH BOSTON*  FAIR      68  66  95 CALM      30.03R
MARTINSVILLE   CLEAR     64  61  91 CALM      30.08R
ROANOKE        CLEAR     72  64  76 CALM      30.08R
BLACKSBURG     CLEAR     66  63  89 CALM      30.15R
DUBLIN*        CLEAR     71  62  73 NW5       30.14R
MARION*        CLEAR     65  63  91 CALM      30.18S
HILLSVILLE*    CLEAR     70  60  71 CALM      30.15R
RICHLANDS*     FAIR      72  63  73 CALM      30.17S
WISE*          CLEAR     70  54  56 CALM      30.19R
ABINGDON*      CLEAR     70  63  78 CALM      30.14R
$$

MDZ021>025-VAZ099-100-240300-
SOUTHERN MARYLAND AND THE DELMARVA PENINSULA

CITY           SKY/WX    TMP DP  RH WIND       PRES   REMARKS
PATUXENT RIVER CLEAR     68  65  90 CALM      29.99S
BAY BRIDGE APT CLEAR     75  68  78 MISG      29.98S
LEONARDTOWN    CLEAR     70  64  83 CALM      30.01S
DOVER          CLEAR     71  71  99 S5        29.96S
GEORGETOWN     CLEAR     70  68  93 SW5       29.99S
EASTON         NOT AVBL
CAMBRIDGE      CLEAR     64  63  94 CALM      29.98F
SALISBURY      CLEAR     69  69 100 CALM      29.99S
OCEAN CITY     CLEAR    N/A N/A N/A CALM      29.99F
WALLOPS ISLAND CLEAR     70  70 100 SW5       30.00F
ACCOMACK*      CLEAR     67  65  93 CALM      30.00F
$$

NCZ012>017-030>032-240300-
NORTH CENTRAL AND EASTERN NORTH CAROLINA

CITY           SKY/WX    TMP DP  RH WIND       PRES   REMARKS
ROANOKE RAPIDS FAIR      68  68 100 CALM      30.01S FOG
RALEIGH        PTCLDY    71  69  93 CALM      30.03R
ELIZABETH CITY CLEAR     73  70  90 N5        30.01S
AHOSKIE*       CLEAR     69  69  99 CALM      30.02R
EDENTON*       PTCLDY    75  75 100 E3        30.01F
CURRITUCK*     CLEAR     72  72 100 CALM      30.01S
KILL DEVIL HLS NOT AVBL
MANTEO         PTCLDY    73  72  96 NE8       30.01R
CAPE HATTERAS  PTCLDY    74  71  91 E5        29.99R
TARBORO*       FOG       70  69  98 CALM      30.02F VSB 1/2
GOLDSBORO      CLEAR     74  74 100 S2        30.00R
WASHINGTON     MOCLDY    72  71  97 CALM      30.01S
GREENVILLE     PTCLDY    73  72  94 CALM      30.03S
NEW BERN       FOG       74  73  97 CALM      30.01S VSB 1
WILMINGTON     CLEAR     73  72  96 NE7       29.99S
$$

VAZ048-240300-
ELSEWHERE

CITY           SKY/WX    TMP DP  RH WIND       PRES   REMARKS
HARRISBURG PA  CLEAR     71  66  84 CALM      29.97R
BALTIMORE      CLEAR     70  66  87 CALM      29.98S
ANNAPOLIS      CLEAR     75  68  78 CALM      29.98S
ANDREWS AFB    CLEAR     71  65  79 S1        29.99S
PHILADELPHIA   CLEAR     77  63  61 SW8       29.97R
HENDERSON NC   CLEAR     68  66  94 CALM      30.03R
GREENSBORO     CLEAR     73  67  81 CALM      30.04R
ROCKY MOUNT    CLEAR     69  69 100 CALM      30.02S FOG
$$

VAZ100-240300-
MARINE

STATION/POSITION TIME  TEMP    WIND        PRES    WAVE   SWELL
                       AIR SEA DIR/SP/G            HT/PER HT/PER
                 (UTC) (F)     (DEG/KT/KT) (MB)    (FT/S) (FT/S)
BRANDYWINE LGT   0100   74     200/ 11/ 14   N/A
CAPE MAY NJ      0100   72 75  180/  4/  7 1014.8R
LEWES DE         0100   72 75  200/  6/  8 1015.2R
OCEAN-CITY-INLET 0100   72 75  240/  4/  5 1016.1R
WACHAPREAGUE VA  0100   71 78   CALM  /  1 1016.2R
THOMAS POINT MD  0200   77 77  210/ 10/ 11 1016.7R
GOOSES REEF MD   0100   78 77  200/  8/ 10 1015.9R   0
COVE POINT MD    0100   75     200/  5/  6 1016.2R
SOLOMONS ISLAND  0100   75 78  150/  3/  4   N/A
BISHOPS HEAD MD  0100   77 78  190/  4/  5 1016.0R
POTOMAC MD       0100   76 78  210/  8/  8 1014.7R
CAMBRIDGE MD     0100   74 77  210/  4/  5 1014.7R
LEWISETTA VA     0100   74 78  210/  4/  4 1015.3R
RAPPAHANNOCK LGT 0100          100/  3/  4 1016.7R
STINGRAY PT      0100   76 77  170/  2/  2 1016.6R   0
YORK RVR RNG VA  0100   76     230/  1/  2 1015.6R
YORKTOWN VA      0100   73 77  200/  1/  2 1015.7R
JAMESTOWN VA     0100   75 78   80/  2/  4   N/A     0
DOMINION TERM VA 0100   76     110/  4/  5 1016.0F
KIPTOPEKE VA     0100      77   CALM  /  1   N/A
CHES BAY BRIDGE  0100   76 77  110/  3/  3 1015.7F
CAPE HENRY VA    0100   74     210/  2/  2   N/A
WILLOUBY STN VA  0100   75      20/  2/  2   N/A
CAPE HENRY BUOY  0112      77                N/A     3/12   2/12
1ST LANDING BUOY 0100   75 77  170/  2/  2 1015.7S   2/ 5
CAPE CHARLES BUO 0126      78                N/A     3/11   2/11
OFFSHORE WE BUOY 0121      76                N/A     4/11   2/11
64NM E OF VA BCH 0150   75 76   10/ 10/ 12 1015.3R   5/11   3/11
DUCK PIER NC     0100   75 77   20/ 11/ 12 1015.4R
44056 DUCK FRF   0111      77                N/A     4/10   2/11
OREGON INLET NC  0100   74 81  360/  7/ 11 1015.5R
HATTERAS NC      0100   77 82   70/  4/  6 1015.1R
DIAMOND SHLS NC  0150   78 81   50/  8/ 10 1015.2R   4/11   3/11
CAPE LOOKOUT NC  0200   79      60/ 11/ 13 1015.1R
$$




USA.gov is the U.S. government's official web portal to all federal, state and local government web resources and services.